Location: Home
(42.5358°N, 72.7383°W)
Time: 20:47:30
(UTC-04:00)

First-Move - Pass Details

Date: 23 August 2022
Orbit: 569 x 659 km, 97.6° (Epoch: 27 September)

Event Time Altitude Azimuth Distance (km) Brightness Sun altitude
Rises 04:43:42 0° 14° (NNE) 2,851 ? -14.7°
Reaches altitude 10° 04:45:54 10° 16° (NNE) 1,930 ? -14.4°
Maximum altitude 04:50:04 73° 101° (E) 613 ? -13.7°
Drops below altitude 10° 04:54:08 10° 187° (S) 1,877 ? -13.1°
Enters shadow 04:54:52 - 188° (S) 2,183 ? -13.0°
